Overview Statistics Trail Chart Weather Telemetry Raw packets
 

This is the latest recevied weather packets stored in our database for station/object 4S6DRJ-13. If no packets are shown the sender has not sent any weather packets the latest 10 day(s).

<< 509 510 511 512 513 514 515 >>
Time Temp. Humidity Pressure Rain* Wind** Luminosity Snow
1787670897 27.78° C 82% 1011.2 hPa 0 mm 1.79 m/s, 170° 0 W/m² -
1787670836 27.78° C 82% 1011.3 hPa 0 mm 1.79 m/s, 229° 0 W/m² -
1787670775 27.78° C 82% 1011.3 hPa 0 mm 0.89 m/s, 249° 0 W/m² -
1787670714 27.78° C 82% 1011.2 hPa 0 mm 1.34 m/s, 278° 0 W/m² -
1787670654 27.78° C 82% 1011.2 hPa 0 mm 2.68 m/s, 224° 0 W/m² -
1787670592 27.78° C 83% 1011 hPa 0 mm 1.34 m/s, 235° 0 W/m² -
1787670531 27.78° C 83% 1011.1 hPa 0 mm 0.45 m/s, 234° 0 W/m² -
1787670470 27.78° C 83% 1011.3 hPa 0 mm 0.45 m/s, 271° 0 W/m² -
1787670409 27.78° C 83% 1011.1 hPa 0 mm 0.45 m/s, 271° 0 W/m² -
1787670348 27.78° C 83% 1011.3 hPa 0 mm 0.89 m/s, 210° 0 W/m² -
1787670287 27.78° C 83% 1011 hPa 0 mm 1.79 m/s, 257° 0 W/m² -
1787670226 27.78° C 83% 1011.1 hPa 0 mm 2.24 m/s, 233° 0 W/m² -
1787670165 27.78° C 83% 1011.1 hPa 0 mm 0.45 m/s, 182° 0 W/m² -
1787670104 27.78° C 83% 1011.2 hPa 0 mm 0 m/s 0 W/m² -
1787670043 27.78° C 83% 1010.9 hPa 0 mm 1.79 m/s, 252° 0 W/m² -
1787669982 27.78° C 83% 1011 hPa 0 mm 1.79 m/s, 176° 0 W/m² -
1787669921 27.78° C 83% 1011.1 hPa 0 mm 1.79 m/s, 254° 0 W/m² -
1787669860 27.78° C 83% 1011.2 hPa 0 mm 0.89 m/s, 226° 0 W/m² -
1787669799 27.78° C 83% 1011.1 hPa 0 mm 0.89 m/s, 195° 0 W/m² -
1787669738 27.78° C 83% 1011 hPa 0 mm 0.89 m/s, 226° 0 W/m² -
1787669677 27.78° C 83% 1010.9 hPa 0 mm 0.45 m/s, 172° 0 W/m² -
1787669616 27.78° C 83% 1010.9 hPa 0 mm 2.68 m/s, 273° 0 W/m² -
1787669555 27.78° C 83% 1011 hPa 0 mm 1.34 m/s, 224° 0 W/m² -
1787669494 27.78° C 83% 1011 hPa 0 mm 0.89 m/s, 314° 0 W/m² -
1787669433 27.78° C 84% 1011.1 hPa 0 mm 0.89 m/s, 218° 0 W/m² -

* Rain latest hour (hover to see other rain measurements)
** Current wind speed in m/s (hover to see current wind gust speed)